Location: Unspecified
(0.0000°N, 0.0000°E)
Time: 11:49:46
(UTC+02:00)

Meteor PRIRODA - Visible Passes

Search period start: 01 August 2014 00:00
Search period end: 11 August 2014 00:00
Orbit: 510 x 536 km, 97.3° (Epoch: 31 July)

Date Brightness Start Highest point End Pass type
(mag) Time Alt. Az. Time Alt. Az. Time Alt. Az.
01 Aug 3.6 06:54:53 10° N 06:58:37 72° W 07:01:57 13° SSW visible
02 Aug 3.9 06:42:18 10° NNE 06:46:01 68° E 06:49:13 14° S visible
03 Aug 4.9 06:29:52 10° NNE 06:33:25 41° E 06:36:29 13° S visible
04 Aug 5.8 06:17:39 10° NE 06:20:49 26° ESE 06:23:45 11° SSE visible
05 Aug 6.5 06:05:45 10° ENE 06:08:12 17° ESE 06:10:41 10° SE visible
05 Aug 5.5 07:40:10 10° NW 07:42:09 14° W 07:44:09 10° WSW visible
06 Aug 6.9 05:54:45 10° E 05:55:36 11° ESE 05:56:27 10° ESE visible
06 Aug 5.0 07:26:37 10° NNW 07:29:32 22° W 07:32:29 10° SW visible
07 Aug 4.4 07:13:29 10° NNW 07:16:54 34° W 07:20:22 10° SW visible
08 Aug 3.8 07:00:35 10° N 07:04:16 55° W 07:07:57 10° SSW visible
09 Aug 3.6 06:47:52 10° NNE 06:51:38 88° E 06:55:12 12° S visible
10 Aug 4.4 06:35:19 10° NNE 06:39:00 53° E 06:42:28 12° S visible
